Regional Weather Roundup
Issued by NWS

Home | Current Version | Previous Version | Text Only | Print | Product List | Glossary Off
Versions: 1 2 3 4 5 6 7 8 9 10 11 12 13 14 15 16 17 18 19 20 21 22 23 24 25 26 27 28 29 30 31 32 33 34 35 36 37 38 39 40 41 42 43 44 45 46 47 48 49 50

000
ASUS43 KMKX 312300
RWRWI

WISCONSIN REGIONAL WEATHER ROUNDUP
NATIONAL WEATHER SERVICE MILWAUKEE/SULLIVAN WI
600 PM CDT FRI OCT 31 2014

NOTE: "FAIR" INDICATES FEW OR NO CLOUDS BELOW 12,000 FEET WITH NO
SIGNIFICANT WEATHER AND/OR OBSTRUCTIONS TO VISIBILITY.

WIZ001-002-006>008-014>016-023>028-010000-
NORTHWEST WISCONSIN

CITY           SKY/WX    TMP DP  RH WIND       PRES   REMARKS
SUPERIOR ARPT  CLEAR     37  17  44 CALM      30.50S
ASHLAND        CLEAR     30  20  66 CALM      30.50R
HAYWARD        CLEAR     34  18  52 N3        30.47R
SIREN          CLEAR     36  16  44 CALM      30.48F
CUMBERLAND     CLEAR     32  19  59 N5        30.47S WCI  27
RICE LAKE      CLEAR     36  18  49 N3        30.48S
CHETEK         CLEAR     36  19  49 N3        30.47S
LADYSMITH      CLEAR     31  21  66 NE7       30.47F WCI  25
EAU CLAIRE     NOT AVBL
MENOMONIE      CLEAR     37  17  43 N10       30.48R WCI  30
NEW RICHMOND   CLEAR     35  16  46 N5        30.48F WCI  31
OSCEOLA        CLEAR     36  18  48 NW5       30.52F WCI  32
$$

WIZ003>005-009-010-017-018-010000-
NORTH CENTRAL WISCONSIN

CITY           SKY/WX    TMP DP  RH WIND       PRES   REMARKS
MANITOWISH WTR PTCLDY    28  20  72 N5        30.43S WCI  23
ARBOR VITAE    CLOUDY    32  25  74 N13       30.42S WCI  22
WOODRUFF       CLOUDY    32  25  74 N13       30.42S WCI  22
RHINELANDER    CLOUDY    30  20  66 N5        30.42R WCI  25
EAGLE RIVER    CLOUDY    29  20  69 N6        30.41R WCI  23
LAND O LAKES   CLOUDY    30  24  77 N7        30.42R WCI  23
PHILLIPS       PTCLDY    29  20  67 N7        30.44S WCI  22
TOMAHAWK       MOCLDY    31  22  68 CALM      30.43R
MEDFORD        MOCLDY    32  20  61 N10G16    30.42S WCI  24
MERRILL        CLEAR     31  20  62 N9G16     30.42S WCI  23
$$

WIZ029-030-035-036-043>047-010000-
CENTRAL WISCONSIN

CITY           SKY/WX    TMP DP  RH WIND       PRES   REMARKS
WAUSAU         PTCLDY    33  18  53 N9        30.41R WCI  25
MOSINEE        PTCLDY    32  19  59 N12       30.43R WCI  23
MARSHFIELD     PTCLDY    34  19  54 N7        30.42R WCI  28
STEVENS POINT  MOCLDY    32  17  52 N9G18     30.42R WCI  24
WAUPACA        CLEAR     37  17  43 N7        30.41R WCI  32
WAUTOMA        NOT AVBL
WISC RAPIDS    PTCLDY    34  17  50 N14       30.44R WCI  25
CAMP DOUGLAS   NOT AVBL
$$

WIZ011>013-019>022-031-037>040-048>050-010000-
NORTHEAST WISCONSIN

CITY           SKY/WX    TMP DP  RH WIND       PRES   REMARKS
ANTIGO         MOCLDY    30  19  61 N14       30.40R WCI  20
SHAWANO        CLOUDY    37  19  49 N12G18    30.41R WCI  29
OCONTO         PTCLDY    33  19  56 NE13G22   30.39S WCI  24
STURGEON BAY   CLOUDY    36  19  51 N22G30    30.38R WCI  24
GREEN BAY      MOCLDY    35  20  54 N18G28    30.39R WCI  24
MANITOWOC      NOT AVBL
APPLETON       MOCLDY    36  18  48 N17       30.38R WCI  25
CLINTONVILLE   MOCLDY    34  18  51 N12G18    30.41R WCI  25
OSHKOSH        MOCLDY    36  20  52 N13       30.38R WCI  27
$$

WIZ032>034-041-042-053>061-010000-
SOUTHWEST WISCONSIN

CITY           SKY/WX    TMP DP  RH WIND       PRES   REMARKS
LA CROSSE      CLEAR     39  19  44 N9        30.45S WCI  33
SPARTA         CLEAR     37  17  42 N9        30.45R WCI  31
VIROQUA        CLEAR     36  18  49 N10G16    30.41R WCI  28
BOSCOBEL       CLEAR     39  16  39 N10       30.43R WCI  32
PRAIRIE DU CHI CLEAR     40  15  36 N8        30.43R WCI  34
PLATTEVILLE    CLEAR     37  18  47 N14G23    30.40R WCI  28
$$

WIZ056-057-062-063-064-067-068-010000-
SOUTH CENTRAL WISCONSIN

CITY           SKY/WX    TMP DP  RH WIND       PRES   REMARKS
REEDSBURG      CLEAR     36  18  48 N8G16     30.41R WCI  29
BARABOO/DELLS  PTCLDY    36  16  44 N7        30.40R WCI  30
LONE ROCK      NOT AVBL
MINERAL POINT  PTCLDY    37  18  44 N10       30.39R WCI  30
MADISON        MOCLDY    36  17  46 N9        30.39R WCI  29
MIDDLETON      PTCLDY    37  16  43 N16G23    30.39R WCI  27
WATERTOWN      PTCLDY    35  19  51 N9G18     30.36R WCI  28
MONROE         PTCLDY    36  19  51 N14G23    30.36R WCI  27
JANESVILLE     MOCLDY    39  18  41 N17G23    30.35R WCI  30
$$

WIZ051-052-058>065-066-070>072-010000-
SOUTHEAST WISCONSIN

CITY           SKY/WX    TMP DP  RH WIND       PRES   REMARKS
MILWAUKEE      MOCLDY    37  19  48 N15G32    30.33R WCI  28
WAUKESHA       MOCLDY    36  18  48 N17G23    30.34R WCI  25
MILWAUKEE/TIMM CLOUDY    36  18  48 N16G23    30.35R WCI  26
RACINE         CLOUDY    37  19  48 N18G32    30.32R WCI  27
BURLINGTON     MOCLDY    35  17  48 N16G26    30.32R WCI  25
KENOSHA        CLOUDY    37  20  50 N16G28    30.31R WCI  28
FOND DU LAC    MOCLDY    36  18  48 N17G26    30.38R WCI  26
SHEBOYGAN      MOCLDY    35  18  49 N10G23    30.36R WCI  27
WEST BEND      MOCLDY    34  18  51 N15G23    30.35R WCI  24
JUNEAU         MOCLDY    35  20  54 N15       30.37R WCI  25
$$

LSZ147-162-010000-
LAKE SUPERIOR

STATION/POSITION TIME  TEMP    WIND        PRES    WAVE
                       AIR SEA DIR/SP/G            HT/PER
                 (UTC) (F)     (DEG/KT/KT) (MB)    (FT/S)
W MID LAKE BUOY  2150   35 43  300/ 10/ 14 1032.7F   4/ 8
DEVILS ISLAND    2200   35     320/  4/  7 1033.5R
PORT WING        2200   38     340/  2/  4 1032.8S
SAXON HARBOR     2240   35     340/  6/  7 1032.5R
$$

LMZ867-665-643>646-010000-
LAKE MICHIGAN

STATION/POSITION TIME  TEMP    WIND        PRES    WAVE
                       AIR SEA DIR/SP/G            HT/PER
                 (UTC) (F)     (DEG/KT/KT) (MB)    (FT/S)
CHAMBERS ISLAND  2200   37     340/ 25/ 30 1028.4R
N MID LAKE BUOY  2150   36 48  360/ 29/ 35 1026.9R   8/ 7
NORTHPORT PIER   2217   36      10/ 25/ 38 1028.1R
KEWAUNEE LAKESHO 2200   36     360/ 15/ 23 1026.7R
SHEBOYGAN LAKESH 2200   38 47   10/ 33/ 39 1028.2R
PORT WASHINGTON  2220   37     360/ 12     1028.1R
ATWATER BUOY     2200   40     360/ 31     1026.8R
MILWAUKEE LAKESH 2200   38     350/ 20/ 31   N/A
S MID LAKE BUOY  2150   40 47  350/ 33/ 41 1023.0R  15/ 8
KENOSHA   LAKESH 2200   38     350/ 28/ 36 1024.7R
$$

TC  - TEMPERATURE IN CELSIUS
VSB - VISIBILITY IN STATUTE MILES
WCI - WIND CHILL INDEX
HX  - HEAT INDEX




USA.gov is the U.S. government's official web portal to all federal, state and local government web resources and services.